Weather History for KPUB - January, 2013

Change the Weather History Date:

Monday, January 14, 2013

  Actual Average Record
Temperature  
Mean Temperature 12 °F 30 °F  
Max Temperature 20 °F 47 °F 67 °F (2006)
Min Temperature 4 °F 14 °F -15 °F (1979)
Degree Days  
Heating Degree Days 53 35  
Month to date heating degree days 577 490  
Since 1 July heating degree days 2799 2853  
Cooling Degree Days 0 0  
Month to date cooling degree days 0 0  
Year to date cooling degree days 0 0  
Moisture  
Dew Point 7 °F    
Average Humidity 76    
Maximum Humidity 84    
Minimum Humidity 67    
Precipitation  
Precipitation 0.01 in 0.01 in 0.35 in (1960)
Month to date precipitation 0.02 0.15  
Year to date precipitation 0.02 0.15  
Snow  
Snow 1.00 in 0.30 in 5.90 in (1959)
Month to date snowfall 1.1 2.9  
Since 1 July snowfall 6.7 14.4  
Snow Depth 1.00 in    
Sea Level Pressure  
Sea Level Pressure 30.17 in    
Wind  
Wind Speed 6 mph (NNE)    
Max Wind Speed 10 mph    
Max Gust Speed 13 mph    
Visibility 5 miles    
Events Snow    
T = Trace of Precipitation, MM = Missing Value Source: NWS Daily Summary

Daily Weather History Graph

Daily Weather History Graph

Search for Another Location

Airport or City:

Trip Planner

Search our weather history database for the weather conditions in past years. The results will help you decide how hot, cold, wet, or windy it might be!

Date:

Astronomy

Jan. 14, 2013 Rise Set
Actual Time 7:13 AM MST 5:01 PM MST
Civil Twilight 6:44 AM MST 5:29 PM MST
Nautical Twilight 6:12 AM MST 6:02 PM MST
Astronomical Twilight 5:40 AM MST 6:34 PM MST
Moon 8:52 AM MST (1/14) 8:45 PM MST (1/14)
Length of Visible Light 10h 45m
Length of Day
9h 47m
Waxing Crescent, 12% of the Moon is Illuminated
Jan 14
Waxing Crescent
Jan 18
First Quarter
Jan 26
Full
Feb 3
Last Quarter
Feb 10
New

Hourly Weather History & Observations

Time (MST) Temp. Windchill Dew Point Humidity Pressure Visibility Wind Dir Wind Speed Gust Speed Precip Events Conditions
12:09 AM 12.2 °F - 8.6 °F 85% 30.09 in 1.8 mi Calm Calm - 0.00 in Snow Light Snow
12:53 AM 12.0 °F 2.7 °F 8.1 °F 84% 30.24 in 1.8 mi North 5.8 mph - 0.01 in Snow Light Snow
1:06 AM 12.2 °F 2.9 °F 8.6 °F 85% 30.07 in 2.0 mi North 5.8 mph - N/A Snow Light Snow
1:23 AM 12.2 °F 2.9 °F 6.8 °F 79% 30.07 in 3.0 mi NNE 5.8 mph - 0.00 in Snow Light Snow
1:53 AM 10.9 °F 0.2 °F 6.1 °F 81% 30.24 in 3.0 mi North 6.9 mph - 0.00 in Snow Light Snow
2:53 AM 12.0 °F 1.5 °F 7.0 °F 80% 30.24 in 5.0 mi North 6.9 mph - 0.00 in Snow Light Snow
3:35 AM 12.2 °F 2.9 °F 6.8 °F 79% 30.07 in 2.5 mi NNE 5.8 mph - 0.00 in Snow Light Snow
3:43 AM 10.4 °F -1.5 °F 6.8 °F 85% 30.07 in 2.5 mi NNE 8.1 mph - 0.00 in Snow Light Snow
3:53 AM 10.9 °F 0.2 °F 7.0 °F 84% 30.23 in 2.5 mi NNE 6.9 mph - 0.00 in Snow Light Snow
4:01 AM 10.4 °F -0.4 °F 6.8 °F 85% 30.06 in 3.0 mi NNE 6.9 mph - 0.00 in Snow Light Snow
4:13 AM 10.4 °F -1.5 °F 6.8 °F 85% 30.07 in 3.0 mi NNE 8.1 mph - 0.00 in Snow Light Snow
4:24 AM 10.4 °F -2.4 °F 6.8 °F 85% 30.07 in 2.5 mi NNE 9.2 mph - 0.00 in Snow Light Snow
4:31 AM 10.4 °F -2.4 °F 5.0 °F 79% 30.07 in 2.5 mi NNE 9.2 mph - 0.00 in Snow Light Snow
4:39 AM 8.6 °F -4.7 °F 5.0 °F 85% 30.07 in 3.0 mi NNE 9.2 mph - 0.00 in Snow Light Snow
4:53 AM 8.1 °F -4.3 °F 3.9 °F 83% 30.25 in 3.0 mi NNE 8.1 mph - 0.00 in Snow Light Snow
5:50 AM 6.8 °F -7.8 °F 1.4 °F 79% 30.08 in 4.0 mi North 10.4 mph - 0.00 in   Scattered Clouds
5:53 AM 6.1 °F -7.8 °F 1.9 °F 83% 30.30 in 5.0 mi North 9.2 mph - 0.00 in   Partly Cloudy
6:12 AM 6.8 °F -6.9 °F 1.4 °F 79% 30.09 in 5.0 mi North 9.2 mph - 0.00 in Snow Light Snow
6:53 AM 9.0 °F -5.1 °F 5.0 °F 84% 30.29 in 5.0 mi North 10.4 mph - 0.00 in Snow Light Snow
7:33 AM 10.4 °F -0.4 °F 6.8 °F 85% 30.10 in 4.0 mi North 6.9 mph - 0.00 in   Haze
7:53 AM 10.9 °F 0.2 °F 6.1 °F 81% 30.30 in 3.0 mi North 6.9 mph - 0.00 in   Haze
8:30 AM 12.2 °F 6.1 °F 6.8 °F 79% 30.10 in 2.5 mi North 3.5 mph - 0.00 in Snow Light Snow
8:39 AM 12.2 °F 6.1 °F 6.8 °F 79% 30.10 in 3.0 mi North 3.5 mph - 0.00 in   Haze
8:48 AM 12.2 °F 2.9 °F 8.6 °F 85% 30.10 in 2.5 mi North 5.8 mph - 0.00 in Snow Light Snow
8:53 AM 12.9 °F 5.2 °F 8.1 °F 81% 30.30 in 2.5 mi North 4.6 mph - 0.00 in Snow Light Snow
9:10 AM 12.2 °F 6.1 °F 6.8 °F 79% 30.10 in 3.0 mi Variable 3.5 mph - 0.00 in Snow Light Snow
9:32 AM 12.2 °F 6.1 °F 8.6 °F 85% 30.10 in 2.5 mi North 3.5 mph - 0.00 in Snow Light Snow
9:48 AM 14.0 °F 6.5 °F 8.6 °F 79% 30.10 in 4.0 mi North 4.6 mph - 0.00 in   Haze
9:53 AM 14.0 °F 8.2 °F 8.1 °F 77% 30.28 in 4.0 mi North 3.5 mph - 0.00 in   Haze
10:53 AM 15.1 °F 7.7 °F 8.1 °F 74% 30.26 in 6.0 mi NE 4.6 mph - 0.00 in   Haze
11:53 AM 17.6 °F 8.2 °F 10.4 °F 73% 30.04 in 5.0 mi NNE 6.9 mph - N/A   Haze
12:53 PM 17.1 °F 10.0 °F 10.9 °F 77% 30.18 in 6.0 mi ENE 4.6 mph - 0.00 in   Haze
1:53 PM 18.0 °F 7.7 °F 10.9 °F 74% 30.17 in 8.0 mi NE 8.1 mph - N/A   Overcast
2:53 PM 19.0 °F 8.2 °F 10.9 °F 71% 30.18 in 6.0 mi ENE 9.2 mph - 0.00 in   Haze
3:15 PM 19.4 °F 9.5 °F 12.2 °F 74% 30.02 in 2.5 mi ENE 8.1 mph - 0.00 in Snow Light Snow
3:22 PM 17.6 °F 8.2 °F 10.4 °F 73% 30.02 in 3.0 mi East 6.9 mph - 0.00 in Snow Light Snow
3:53 PM 19.0 °F 12.3 °F 10.9 °F 71% 30.20 in 10.0 mi East 4.6 mph - 0.00 in   Mostly Cloudy
4:53 PM 17.1 °F 5.0 °F 10.0 °F 74% 30.23 in 10.0 mi NE 10.4 mph - N/A   Overcast
5:34 PM 15.8 °F 4.2 °F 8.6 °F 73% 30.06 in 10.0 mi NE 9.2 mph - N/A   Scattered Clouds
5:53 PM 12.9 °F 2.6 °F 8.1 °F 81% 30.28 in 10.0 mi NNE 6.9 mph - N/A   Clear
6:53 PM 9.0 °F -4.2 °F 3.9 °F 80% 30.30 in 10.0 mi North 9.2 mph - N/A   Clear
7:53 PM 9.0 °F -3.2 °F 3.0 °F 77% 30.30 in 10.0 mi North 8.1 mph - N/A   Scattered Clouds
8:53 PM 9.0 °F -4.2 °F 3.0 °F 77% 30.29 in 10.0 mi NW 9.2 mph - N/A   Overcast
9:53 PM 10.9 °F - 3.0 °F 70% 30.27 in 10.0 mi Calm Calm - N/A   Overcast
10:53 PM 9.0 °F 2.4 °F 3.0 °F 77% 30.27 in 10.0 mi WSW 3.5 mph - N/A   Scattered Clouds
11:53 PM 5.0 °F - -0.0 °F 80% 30.27 in 10.0 mi Calm Calm - N/A   Partly Cloudy